This is the latest recevied weather packets stored in our database for station/object XQ6AK-15. If no packets are shown the sender has not sent any weather packets the latest 10 day(s).
| Time | Temp. | Humidity | Pressure | Rain* | Wind** | Luminosity | Snow |
|---|---|---|---|---|---|---|---|
| 1777559914 | 11.11° C | 96% | 1010.9 hPa | 0 mm | - | 199 W/m² | - |
| 1777559609 | 10.56° C | 97% | 1010.7 hPa | 0 mm | - | 294 W/m² | - |
| 1777559307 | 10.56° C | 98% | 1010.9 hPa | 0 mm | - | 157 W/m² | - |
| 1777559003 | 10° C | 98% | 1010.6 hPa | 0 mm | - | 136 W/m² | - |
| 1777558699 | 10° C | 97% | 1010.9 hPa | 0 mm | - | 115 W/m² | - |
| 1777558395 | 10° C | 96% | 1010.7 hPa | 0 mm | - | 115 W/m² | - |
| 1777558091 | 10° C | 96% | 1010.8 hPa | 0 mm | - | 135 W/m² | - |
| 1777557788 | 10° C | 96% | 1010.8 hPa | 0 mm | - | 123 W/m² | - |
| 1777557484 | 10° C | 96% | 1010.8 hPa | 0 mm | - | 137 W/m² | - |
| 1777557181 | 10° C | 97% | 1010.7 hPa | 0 mm | - | 140 W/m² | - |
| 1777556876 | 9.44° C | 99% | 1010.7 hPa | 0 mm | - | 144 W/m² | - |
| 1777556572 | 9.44° C | 99% | 1010.7 hPa | 0 mm | - | 127 W/m² | - |
| 1777556272 | 8.89° C | 99% | 1010.6 hPa | 0 mm | - | 100 W/m² | - |
| 1777555968 | 8.89° C | 99% | 1010.9 hPa | 0 mm | - | 83 W/m² | - |
| 1777555663 | 8.89° C | 99% | 1010.6 hPa | 0 mm | - | 81 W/m² | - |
| 1777555360 | 8.89° C | 99% | 1010.9 hPa | 0 mm | - | 94 W/m² | - |
| 1777555057 | 8.33° C | 99% | 1010.8 hPa | 0 mm | - | 89 W/m² | - |
| 1777554754 | 8.33° C | 99% | 1010.7 hPa | 0 mm | - | 80 W/m² | - |
| 1777554451 | 8.33° C | 99% | 1010.7 hPa | 0 mm | - | 67 W/m² | - |
| 1777554147 | 8.33° C | 99% | 1010.8 hPa | 0 mm | - | 61 W/m² | - |
| 1777553845 | 8.33° C | 99% | 1010.7 hPa | 0 mm | - | 64 W/m² | - |
| 1777553540 | 7.78° C | 99% | 1010.7 hPa | 0 mm | - | 54 W/m² | - |
| 1777553236 | 7.78° C | 99% | 1010.7 hPa | 0 mm | - | 46 W/m² | - |
| 1777552933 | 8.33° C | 99% | 1010.7 hPa | 0 mm | - | 38 W/m² | - |
| 1777552628 | 7.78° C | 99% | 1010.5 hPa | 0 mm | - | 36 W/m² | - |
* Rain latest hour (hover to see other rain measurements)
** Current wind speed in m/s (hover to see current wind gust speed)